Lumberton, NJ

3:16 AM EST on February 09, 2016 (GMT -0500)
South Jersey Regional

Weather History for KVAY - March, 2013

Change the Weather History Date:

Sunday, March 3, 2013

  Actual Average (KWRI) Record (KWRI)
Temperature  
Mean Temperature 32 °F -  
Max Temperature 37 °F 45 °F 63 °F (2008)
Min Temperature 28 °F 27 °F 9 °F (2014)
Degree Days  
Heating Degree Days 32    
Moisture  
Dew Point 17 °F    
Average Humidity 53    
Maximum Humidity 64    
Minimum Humidity 44    
Precipitation  
Precipitation 0.00 in - - ()
Sea Level Pressure  
Sea Level Pressure 29.77 in    
Wind  
Wind Speed 9 mph (NW)    
Max Wind Speed 15 mph    
Max Gust Speed 22 mph    
Visibility 10 miles    
Events      
Averages and records for this station are not official NWS values.
T = Trace of Precipitation, MM = Missing Value Source: NWS Daily Summary

Daily Weather History Graph

Daily Weather History Graph

Search for Another Location

Airport or City:

Trip Planner

Search our weather history database for the weather conditions in past years. The results will help you decide how hot, cold, wet, or windy it might be!

Date:

Astronomy

Mar. 03, 2013 Rise Set
Actual Time 6:29 AM EST 5:53 PM EST
Civil Twilight 6:02 AM EST 6:20 PM EST
Nautical Twilight 5:30 AM EST 6:52 PM EST
Astronomical Twilight 4:59 AM EST 7:23 PM EST
Moon No Moon Rise 9:42 AM EST (3/3)
Length of Visible Light 12h 18m
Length of Day
11h 24m
Waning Gibbous, 64% of the Moon is Illuminated
Mar 3
Waning Gibbous
Mar 4
Last Quarter
Mar 11
New
Mar 19
First Quarter
Mar 27
Full

Hourly Weather History & Observations

Time (EST) Temp. Windchill Dew Point Humidity Pressure Visibility Wind Dir Wind Speed Gust Speed Precip Events Conditions
12:54 AM 30.9 °F 22.8 °F 18.0 °F 59% 29.78 in 10.0 mi NW 9.2 mph - N/A   Partly Cloudy
1:54 AM 30.9 °F 25.2 °F 18.0 °F 59% 29.78 in 10.0 mi NW 5.8 mph - N/A   Partly Cloudy
2:54 AM 30.0 °F 22.4 °F 18.0 °F 61% 29.77 in 10.0 mi NW 8.1 mph - N/A   Clear
3:54 AM 28.9 °F 22.8 °F 18.0 °F 64% 29.77 in 10.0 mi NW 5.8 mph - N/A   Clear
4:54 AM 28.9 °F 21.9 °F 16.0 °F 58% 29.78 in 10.0 mi NW 6.9 mph - N/A   Overcast
5:54 AM 28.0 °F 21.7 °F 16.0 °F 61% 29.79 in 10.0 mi WNW 5.8 mph - N/A   Clear
6:54 AM 28.0 °F 20.8 °F 16.0 °F 61% 29.79 in 10.0 mi NW 6.9 mph - N/A   Clear
7:54 AM 28.9 °F 22.8 °F 16.0 °F 58% 29.80 in 10.0 mi WNW 5.8 mph - N/A   Mostly Cloudy
8:54 AM 30.9 °F 21.7 °F 16.0 °F 54% 29.80 in 10.0 mi NW 11.5 mph 20.7 mph N/A   Mostly Cloudy
9:54 AM 30.9 °F 21.2 °F 16.0 °F 54% 29.79 in 10.0 mi WNW 12.7 mph 20.7 mph N/A   Overcast
10:54 AM 33.1 °F 24.4 °F 16.0 °F 50% 29.78 in 10.0 mi WNW 11.5 mph 20.7 mph N/A   Overcast
11:54 AM 33.1 °F 24.9 °F 16.0 °F 50% 29.77 in 10.0 mi WNW 10.4 mph 19.6 mph N/A   Overcast
12:54 PM 36.0 °F 27.5 °F 17.1 °F 46% 29.74 in 10.0 mi NW 12.7 mph 19.6 mph N/A   Overcast
1:54 PM 36.0 °F 26.7 °F 16.0 °F 44% 29.73 in 10.0 mi West 15.0 mph 20.7 mph N/A   Mostly Cloudy
2:54 PM 36.0 °F 28.5 °F 17.1 °F 46% 29.73 in 10.0 mi WNW 10.4 mph 20.7 mph N/A   Overcast
3:54 PM 37.0 °F 28.5 °F 17.1 °F 44% 29.73 in 10.0 mi NW 13.8 mph 21.9 mph N/A   Mostly Cloudy
4:54 PM 36.0 °F 29.0 °F 17.1 °F 46% 29.74 in 10.0 mi WNW 9.2 mph 17.3 mph N/A   Mostly Cloudy
5:54 PM 35.1 °F 27.9 °F 17.1 °F 48% 29.75 in 10.0 mi NW 9.2 mph - N/A   Clear
6:54 PM 34.0 °F 28.8 °F 17.1 °F 50% 29.77 in 10.0 mi WNW 5.8 mph - N/A   Clear
7:54 PM 35.1 °F 28.6 °F 17.1 °F 48% 29.78 in 10.0 mi NW 8.1 mph 17.3 mph N/A   Overcast
8:54 PM 34.0 °F 31.0 °F 17.1 °F 50% 29.80 in 10.0 mi WNW 3.5 mph - N/A   Overcast
9:54 PM 34.0 °F 29.8 °F 19.0 °F 54% 29.80 in 10.0 mi NW 4.6 mph - N/A   Overcast
10:54 PM 33.1 °F 24.4 °F 18.0 °F 54% 29.80 in 10.0 mi NNW 11.5 mph - N/A   Mostly Cloudy
11:54 PM 32.0 °F 24.8 °F 18.0 °F 56% 29.81 in 10.0 mi NNW 8.1 mph - N/A   Overcast